User: anonymous
Location: Muenchen
(48.1800°N, 11.5800°E)
Time: 04:34:53
(UTC+02:00)
Language:

Iridium 73 - Orbit

View from above orbital plane
View from above orbital plane
View from above satellite
View from above satellite

Ground track
Ground track

The orbit data is extracted from the following two-line orbital elements,

1 25344U 98032C   14209.36780319  .00000279  00000-0  69112-4 0  7655
2 25344 086.4431 288.5344 0002080 091.2446 320.8613 14.48322570854833
Epoch (UTC): 28 July 2014 08:49:38
Eccentricity: 0.0002080
inclination: 86.4431°
perigee height: 729 km
apogee height: 732 km
right ascension of ascending node: 288.5344°
argument of perigee: 91.2446°
revolutions per day: 14.48322570
mean anomaly at epoch: 320.8613°
orbit number at epoch: 85483

The dashed part of the orbit path shows where the satellite is in the earth's shadow,  

DLR